Location: Brodeslavy
(49.9527°N, 13.5567°E)
Time: 20:50:02
(UTC+00:00)

ATLAS 3B R/B - Pass Details

Date: 17 June 2025
Orbit: 935 x 1258 km, 63.8° (Epoch: 16 July)

Event Time Altitude Azimuth Distance (km) Brightness Sun altitude
Rises 22:29:58 0° 315° (NW) 4,210 6.7 -16.2°
Reaches altitude 10° 22:32:50 10° 319° (NW) 3,249 6.1 -16.3°
Maximum altitude 22:40:42 62° 40° (NE) 1,388 3.5 -16.4°
Drops below altitude 10° 22:48:18 10° 120° (ESE) 3,152 4.8 -16.5°
Enters shadow 22:50:11 - 123° (ESE) 3,788 5.2 -16.5°
